Location: Zerbst
(51.9650°N, 12.0766°E)
Time: 22:40:45
(UTC+02:00)

ISS - Pass Details

Date: 22 May 2017
Orbit: 401 x 408 km, 51.6° (Epoch: 25 June)

Event Time Altitude Azimuth Distance (km) Brightness Sun altitude
Exits shadow 23:38:27 18° 102° (ESE) 1,095 -2.0 -14.9°
Drops below altitude 10° 23:39:35 10° 89° (E) 1,474 -1.2 -14.9°
Sets 23:41:50 0° 78° (ENE) 2,336 -0.1 -15.0°
